[[{"header":{"parameterUnit":"m.s-1","parameterCategory":2,"la1":30.2991,"la2":30.254,"lo1":-89.0895,"lo2":-89.0444,"dy":0.0017,"dx":0.0017,"nx":28,"ny":28,"refTime":"2024-11-29T03:00:00:Z","depth":"0","parameterNumber":2,"parameterNumberName":"U-component_of_CURRENTS"},"data":[0,0,0,0,0,0,0,0,0,0,0,0,0,0,0,0,0,0,0,0,0,0,0,0,0,0,0,0,0,0,0,0,0,0,0,0,0,0,0,0,0,0,0,0,0,0,0,0,0,0,0,0,0,0,0,0,0,0,-0.2111,-0.2111,0,-0.2119,-0.2119,-0.2118,-0.2083,-0.2082,-0.2081,-0.208,-0.2055,-0.2055,-0.2055,0,0,0,0,0,0,0,0,0,0,0,0,0,-0.207,-0.2071,-0.2111,-0.2111,-0.2111,-0.2119,-0.2119,-0.2118,-0.2083,-0.2082,-0.2081,-0.208,-0.2055,-0.2055,-0.2055,0,0,0,0,0,0,0,0,0,0,0,0,0,-0.2082,-0.2071,-0.2111,-0.2096,-0.2095,-0.2119,-0.2119,-0.2118,-0.2083,-0.2082,-0.2081,-0.2079,-0.2055,-0.2055,-0.2055,-0.2083,0,0,-0.2056,-0.2056,0,0,0,0,0,0,0,0,-0.2082,-0.2084,-0.2098,-0.2097,-0.2096,-0.21,-0.2095,-0.2105,-0.2084,-0.2086,-0.208,-0.2079,-0.2069,-0.2068,-0.207,-0.2081,-0.208,-0.2056,-0.2056,-0.2056,-0.2056,0,0,0,0,0,0,0,-0.2081,-0.2083,-0.2112,-0.2098,-0.2097,-0.2091,-0.2091,-0.2097,-0.2083,-0.2086,-0.2083,-0.2088,-0.2068,-0.207,-0.2069,-0.208,-0.2056,-0.2056,-0.2056,-0.2056,-0.2097,-0.2098,0,0,0,0,0,0,-0.2085,-0.2083,-0.2112,-0.2113,-0.2087,-0.2093,-0.2092,-0.2099,-0.2083,-0.208,-0.2089,-0.2086,-0.2071,-0.2069,-0.2068,-0.2088,-0.2056,-0.2056,-0.2056,-0.2096,-0.2097,-0.2098,0,0,0,0,0,0,-0.2084,-0.2088,-0.2112,-0.2099,-0.2102,-0.2095,-0.2102,-0.2099,-0.2096,-0.2086,-0.2082,-0.2087,-0.2069,-0.2068,-0.2072,-0.2087,-0.2056,-0.2057,-0.2095,-0.2096,-0.2098,-0.2135,0,0,0,0,0,0,-0.2083,-0.2087,-0.209,-0.2099,-0.2103,-0.2126,-0.2103,-0.2101,-0.2102,-0.2098,-0.2084,-0.208,-0.2068,-0.2072,-0.2072,-0.2087,-0.2057,-0.2094,-0.2095,-0.2097,-0.2133,-0.2138,-0.2142,0,0,0,0,0,-0.2082,-0.2092,-0.209,-0.2093,-0.2107,-0.2127,-0.2128,-0.2118,-0.2103,-0.2108,-0.2096,-0.208,-0.2083,-0.2073,-0.2073,-0.2088,-0.2093,-0.2095,-0.2097,-0.2131,-0.2137,-0.2142,0,0,0,0,0,0,-0.2074,-0.209,-0.2088,-0.2102,-0.2114,-0.2122,-0.2124,-0.2121,-0.2118,-0.2109,-0.2094,-0.209,-0.21,-0.2092,-0.2081,-0.2106,-0.2086,-0.2088,-0.2111,-0.2117,-0.2122,-0.212,-0.2057,0,0,0,0,0,-0.2077,-0.2085,-0.2103,-0.2111,-0.212,-0.2123,-0.2128,-0.2125,-0.2126,-0.2122,-0.2114,-0.2108,-0.2113,-0.2111,-0.2112,-0.2128,-0.2113,-0.2139,-0.2143,-0.2147,-0.2147,-0.2141,-0.2145,-0.2105,-0.2105,-0.2105,0,0,-0.2074,-0.2085,-0.2088,-0.211,-0.2115,-0.2136,-0.2122,-0.2133,-0.2147,-0.2122,-0.213,-0.2124,-0.2121,-0.2135,-0.2139,-0.2128,-0.2151,-0.215,-0.2153,-0.215,-0.2143,-0.2147,-0.215,-0.2107,-0.2106,-0.2106,0,0,-0.208,-0.2086,-0.2097,-0.2114,-0.2132,-0.2141,-0.2146,-0.2159,-0.2158,-0.2173,-0.2158,-0.2161,-0.2167,-0.2167,-0.2169,-0.2202,-0.2176,-0.2205,-0.2226,-0.222,-0.2223,-0.2226,-0.2211,-0.2211,-0.2206,-0.2206,-0.2206,0,-0.2076,-0.2093,-0.2104,-0.2125,-0.2138,-0.2145,-0.2166,-0.2178,-0.2188,-0.2192,-0.2178,-0.2187,-0.2183,-0.2202,-0.2213,-0.2213,-0.22,-0.2204,-0.2226,-0.2228,-0.2229,-0.2213,-0.2214,-0.2208,-0.2208,-0.2208,-0.2208,0,-0.2092,-0.2109,-0.2119,-0.2147,-0.2167,-0.2184,-0.2209,-0.2222,-0.2222,-0.2228,-0.2241,-0.2236,-0.2237,-0.2244,-0.2238,-0.2256,-0.224,-0.2232,-0.2209,-0.2235,-0.2217,-0.2217,-0.2211,-0.2211,-0.221,-0.2209,0,0,-0.207,-0.212,-0.2121,-0.2138,-0.2178,-0.2194,-0.2228,-0.2256,-0.2269,-0.2277,-0.2288,-0.2301,-0.2288,-0.2289,-0.2283,-0.2282,-0.2286,-0.2264,-0.2263,-0.2245,-0.2266,-0.2178,-0.2169,-0.228,-0.228,-0.228,-0.2248,0,-0.2074,-0.2112,-0.214,-0.2175,-0.2195,-0.2225,-0.2256,-0.2284,-0.2297,-0.2312,-0.2312,-0.2318,-0.231,-0.2306,-0.2307,-0.2294,-0.2287,-0.2295,-0.2247,-0.2245,-0.216,-0.2166,-0.2075,-0.2031,-0.2247,-0.2247,-0.2247,0,-0.2073,-0.21,-0.2133,-0.2185,-0.2197,-0.2221,-0.2261,-0.2291,-0.2325,-0.2335,-0.2344,-0.2341,-0.235,-0.2331,-0.2318,-0.2323,-0.2297,-0.2281,-0.228,-0.2182,-0.2156,-0.204,-0.2022,-0.2002,-0.2246,-0.2246,-0.2246,0,-0.2033,-0.2091,-0.2113,-0.2131,-0.2194,-0.2212,-0.2243,-0.2288,-0.2309,-0.2341,-0.2349,-0.2361,-0.2355,-0.234,-0.2308,-0.2314,-0.2279,-0.2282,-0.2178,-0.2171,-0.2074,-0.2058,-0.2025,-0.2262,-0.2263,-0.2263,-0.2263,0,-0.2016,-0.2031,-0.2093,-0.2102,-0.2129,-0.2186,-0.2211,-0.2248,-0.2294,-0.2312,-0.2347,-0.2352,-0.2356,-0.2337,-0.2312,-0.2233,-0.2278,-0.2175,-0.2154,-0.2084,-0.207,-0.2033,-0.2052,-0.2261,-0.2262,-0.2262,-0.2262,0,-0.1957,-0.2002,-0.2027,-0.209,-0.2106,-0.2121,-0.2184,-0.2202,-0.2259,-0.2283,-0.2291,-0.2339,-0.2312,-0.2294,-0.2263,-0.2219,-0.2119,-0.2125,-0.2035,-0.2004,-0.1876,-0.19,-0.1837,-0.1787,-0.2006,-0.2004,-0.2002,0,-0.1928,-0.1934,-0.1993,-0.2001,-0.2024,-0.2059,-0.2081,-0.2162,-0.2187,-0.2265,-0.2267,-0.2269,-0.2233,-0.2158,-0.209,-0.2007,-0.2018,-0.1883,-0.1873,-0.1846,-0.186,-0.1883,-0.1848,-0.1768,-0.1764,-0.1761,-0.1759,0,-0.1859,-0.1878,-0.1896,-0.1917,-0.1937,-0.1967,-0.201,-0.2031,-0.2122,-0.2146,-0.2166,-0.2145,-0.2083,-0.1959,-0.186,-0.181,-0.1827,-0.1814,-0.1815,-0.1687,-0.1682,-0.163,-0.1819,-0.1731,-0.1734,-0.1736,-0.1738,-0.1739,-0.1789,-0.1783,-0.1803,-0.1812,-0.1837,-0.1849,-0.1838,-0.1899,-0.192,-0.1939,-0.2007,-0.1947,-0.1868,-0.1708,-0.1652,-0.1536,-0.1606,-0.1497,-0.1535,-0.1565,-0.1494,-0.1609,-0.1479,-0.148,-0.1481,-0.1482,-0.1483,0,-0.1688,-0.1688,-0.1695,-0.1701,-0.168,-0.1732,-0.1762,-0.1734,-0.1718,-0.1764,-0.1749,-0.1676,-0.1534,-0.1482,-0.1363,-0.1289,-0.1276,-0.1272,-0.1304,-0.1286,-0.1401,-0.1366,-0.1169,-0.1169,-0.1169,-0.1169,-0.1169,-0.1169,-0.1634,-0.1596,-0.16,-0.153,-0.1532,-0.147,-0.146,-0.144,-0.1446,-0.1398,-0.1389,-0.1406,-0.136,-0.1378,-0.1253,-0.1188,-0.1177,-0.113,-0.117,-0.1279,-0.1304,-0.1328,-0.1299,-0.1092,-0.1092,-0.1003,-0.1002,-0.1002]},{"header":{"parameterUnit":"m.s-1","parameterCategory":2,"la1":30.2991,"la2":30.254,"lo1":-89.0895,"lo2":-89.0444,"dy":0.0017,"dx":0.0017,"nx":28,"ny":28,"refTime":"2024-11-29T03:00:00:Z","depth":"0","parameterNumber":3,"parameterNumberName":"V-component_of_CURRENTS"},"data":[0,0,0,0,0,0,0,0,0,0,0,0,0,0,0,0,0,0,0,0,0,0,0,0,0,0,0,0,0,0,0,0,0,0,0,0,0,0,0,0,0,0,0,0,0,0,0,0,0,0,0,0,0,0,0,0,0,0,-0.0316,-0.0316,0,-0.0248,-0.0247,-0.0246,-0.0197,-0.0197,-0.0197,-0.0196,-0.0083,-0.0081,-0.0078,0,0,0,0,0,0,0,0,0,0,0,0,0,-0.0365,-0.0364,-0.0317,-0.0316,-0.0315,-0.0248,-0.0247,-0.0246,-0.0197,-0.0197,-0.0197,-0.0196,-0.0084,-0.0081,-0.0078,0,0,0,0,0,0,0,0,0,0,0,0,0,-0.0324,-0.0364,-0.0317,-0.0283,-0.028,-0.0248,-0.0247,-0.0246,-0.0197,-0.0197,-0.0196,-0.0196,-0.0085,-0.0081,-0.0077,-0.0061,0,0,-0.0065,-0.0063,0,0,0,0,0,0,0,0,-0.0326,-0.0322,-0.0289,-0.0286,-0.0282,-0.0232,-0.0223,-0.0182,-0.0198,-0.0228,-0.0196,-0.0196,-0.013,-0.0122,-0.0109,-0.0056,-0.0051,-0.0064,-0.0062,-0.006,-0.0059,0,0,0,0,0,0,0,-0.0329,-0.0325,-0.0288,-0.0288,-0.0284,-0.0258,-0.0252,-0.0215,-0.018,-0.0225,-0.0221,-0.0216,-0.0127,-0.0113,-0.0106,-0.0049,-0.0064,-0.0061,-0.0058,-0.0057,0.0028,0.0028,0,0,0,0,0,0,-0.0342,-0.0327,-0.0291,-0.0286,-0.0304,-0.0258,-0.0251,-0.0247,-0.0182,-0.0172,-0.0216,-0.0214,-0.0121,-0.0111,-0.0102,-0.0082,-0.006,-0.0056,-0.0054,0.0028,0.0028,0.0027,0,0,0,0,0,0,-0.0344,-0.034,-0.0293,-0.0306,-0.0298,-0.0258,-0.0254,-0.0246,-0.0232,-0.0176,-0.0165,-0.021,-0.012,-0.0108,-0.0071,-0.0077,-0.0054,-0.0051,0.0028,0.0028,0.0028,-0.0039,0,0,0,0,0,0,-0.0345,-0.0341,-0.0343,-0.0307,-0.0298,-0.0281,-0.0254,-0.0245,-0.023,-0.0226,-0.0167,-0.0156,-0.0119,-0.0078,-0.0067,-0.0071,-0.0048,0.0028,0.0028,0.0028,-0.0037,-0.0042,-0.0046,0,0,0,0,0,-0.0347,-0.0355,-0.0344,-0.034,-0.0303,-0.0282,-0.0275,-0.0243,-0.023,-0.0228,-0.0188,-0.0158,-0.0073,-0.0075,-0.0062,-0.0065,0.0029,0.0028,0.0028,-0.0035,-0.0041,-0.0046,0,0,0,0,0,0,-0.0375,-0.0349,-0.0337,-0.0335,-0.0313,-0.0274,-0.0269,-0.0249,-0.0216,-0.0211,-0.0158,-0.0144,-0.0116,-0.0081,-0.0084,-0.0042,-0.0018,-0.0016,-0.007,-0.0075,-0.008,-0.0093,-0.0044,0,0,0,0,0,-0.0385,-0.0384,-0.0353,-0.0352,-0.0344,-0.0308,-0.0296,-0.0276,-0.0242,-0.0228,-0.0187,-0.0144,-0.0108,-0.0085,-0.0049,-0.0023,0.0017,-0.0017,-0.0022,-0.0026,-0.0029,0.0024,0.0024,0.0026,0.0026,0.0026,0,0,-0.0395,-0.0381,-0.038,-0.0358,-0.0338,-0.0336,-0.03,-0.0287,-0.0281,-0.022,-0.02,-0.0159,-0.0106,-0.008,-0.0064,-0.005,-0.0005,-0.0027,-0.0031,-0.0031,0.0024,0.0024,0.0024,0.0026,0.0026,0.0026,0,0,-0.0422,-0.0404,-0.0415,-0.0402,-0.038,-0.0357,-0.0357,-0.0322,-0.0303,-0.0278,-0.0235,-0.0198,-0.0144,-0.0106,-0.008,-0.0087,-0.0034,-0.0078,-0.0108,-0.0057,-0.0056,-0.0055,-0.0005,0.0001,-0.0077,-0.0077,-0.0077,0,-0.0437,-0.0446,-0.0415,-0.0423,-0.0418,-0.0373,-0.0384,-0.0358,-0.0315,-0.0298,-0.0281,-0.0198,-0.0156,-0.0116,-0.0122,-0.0097,-0.0061,-0.0093,-0.0063,-0.0061,-0.0059,-0.0008,-0.0,-0.0081,-0.008,-0.008,-0.008,0,-0.0472,-0.048,-0.0485,-0.0481,-0.0469,-0.0471,-0.0436,-0.0419,-0.039,-0.0357,-0.0313,-0.0252,-0.0201,-0.0184,-0.0155,-0.0122,-0.0098,-0.0079,-0.0052,-0.0064,-0.0008,0.0001,-0.0085,-0.0084,-0.0083,-0.0082,0,0,-0.0505,-0.0511,-0.0513,-0.0525,-0.0502,-0.0497,-0.0487,-0.046,-0.0447,-0.0398,-0.0373,-0.0313,-0.0273,-0.0241,-0.0194,-0.015,-0.0106,-0.0116,-0.0112,-0.0072,0.0007,0.0054,0.0068,-0.0083,-0.0082,-0.0081,0.004,0,-0.0544,-0.0581,-0.0566,-0.0593,-0.0609,-0.0568,-0.0561,-0.0527,-0.0483,-0.0445,-0.0374,-0.0331,-0.0296,-0.0269,-0.0222,-0.0131,-0.0086,-0.0141,0.0018,0.0023,0.0061,0.0079,0.0109,0.0222,0.0049,0.0051,0.0052,0,-0.0584,-0.0604,-0.0645,-0.0654,-0.0655,-0.0659,-0.0632,-0.0618,-0.0549,-0.0513,-0.0453,-0.0391,-0.0317,-0.0287,-0.0143,-0.018,-0.0099,-0.0029,-0.0022,0.0051,0.0086,0.0208,0.0245,0.035,0.0066,0.0065,0.0064,0,-0.0629,-0.0657,-0.0693,-0.0697,-0.0698,-0.0702,-0.0692,-0.0639,-0.0621,-0.055,-0.0519,-0.0423,-0.036,-0.0257,-0.0111,-0.0127,0.0056,0.0056,0.0176,0.018,0.0253,0.0262,0.0407,0.0152,0.0152,0.0152,0.0151,0,-0.0678,-0.0705,-0.0719,-0.074,-0.0773,-0.075,-0.0757,-0.0729,-0.0675,-0.0644,-0.0558,-0.0497,-0.035,-0.0224,-0.0112,0.0071,0.0061,0.0179,0.0218,0.0231,0.0236,0.0368,0.04,0.0156,0.0155,0.0154,0.0153,0,-0.0721,-0.0733,-0.0777,-0.0794,-0.0799,-0.0821,-0.0811,-0.0805,-0.075,-0.0702,-0.0681,-0.0538,-0.0365,-0.0207,-0.0008,0.0085,0.0321,0.0307,0.0312,0.035,0.0537,0.0563,0.0749,0.0819,0.0449,0.0451,0.0452,0,-0.0747,-0.0777,-0.0821,-0.0849,-0.086,-0.0881,-0.089,-0.085,-0.0832,-0.0715,-0.0689,-0.0514,-0.0363,-0.0055,0.0143,0.036,0.0431,0.0501,0.0472,0.0564,0.0622,0.0635,0.068,0.0545,0.0548,0.0549,0.0551,0,-0.0793,-0.0809,-0.0844,-0.0905,-0.0932,-0.0957,-0.096,-0.0957,-0.0888,-0.0814,-0.067,-0.0536,-0.0228,0.0051,0.0324,0.0448,0.0581,0.0545,0.0648,0.0719,0.0737,0.0817,0.0444,0.0567,0.0566,0.0565,0.0564,0.0563,-0.0816,-0.0855,-0.0902,-0.0955,-0.099,-0.1015,-0.1022,-0.0987,-0.0931,-0.079,-0.0657,-0.0412,-0.0042,0.0361,0.0499,0.0778,0.0739,0.0852,0.088,0.0887,0.0945,0.0606,0.0764,0.0764,0.0763,0.0763,0.0763,0,-0.0839,-0.0883,-0.0944,-0.1003,-0.1041,-0.1047,-0.105,-0.1015,-0.0927,-0.0751,-0.0569,-0.0116,0.0245,0.0562,0.0949,0.1097,0.1118,0.117,0.1194,0.1227,0.0946,0.094,0.1134,0.1134,0.1134,0.1134,0.1134,0.1134,-0.0852,-0.0913,-0.0949,-0.1022,-0.106,-0.1078,-0.1072,-0.0989,-0.086,-0.0552,-0.0267,-0.0036,0.0421,0.1013,0.1357,0.1389,0.1504,0.15,0.1563,0.1357,0.1329,0.1302,0.1306,0.1574,0.1575,0.1837,0.184,0.1842]}],[{"header":{"parameterUnit":"m.s-1","parameterCategory":2,"la1":30.2991,"la2":30.254,"lo1":-89.0895,"lo2":-89.0444,"dy":0.0017,"dx":0.0017,"nx":28,"ny":28,"refTime":"2024-11-29T03:00:00:Z","depth":"2","parameterNumber":2,"parameterNumberName":"U-component_of_CURRENTS"},"data":[0,0,0,0,0,0,0,0,0,0,0,0,0,0,0,0,0,0,0,0,0,0,0,0,0,0,0,0,0,0,0,0,0,0,0,0,0,0,0,0,0,0,0,0,0,0,0,0,0,0,0,0,0,0,0,0,0,0,-0.1884,-0.1884,0,-0.1896,-0.1896,-0.1896,-0.1868,-0.1867,-0.1866,-0.1866,-0.1847,-0.1848,-0.1848,0,0,0,0,0,0,0,0,0,0,0,0,0,-0.1844,-0.1845,-0.1884,-0.1884,-0.1884,-0.1896,-0.1896,-0.1896,-0.1868,-0.1867,-0.1866,-0.1865,-0.1847,-0.1848,-0.1848,0,0,0,0,0,0,0,0,0,0,0,0,0,-0.1858,-0.1845,-0.1884,-0.1873,-0.1872,-0.1896,-0.1896,-0.1896,-0.1868,-0.1867,-0.1866,-0.1865,-0.1847,-0.1848,-0.1848,-0.1873,0,0,-0.1849,-0.1849,0,0,0,0,0,0,0,0,-0.1857,-0.1859,-0.1874,-0.1874,-0.1873,-0.188,-0.1875,-0.1887,-0.1868,-0.1868,-0.1866,-0.1864,-0.1857,-0.1857,-0.186,-0.1872,-0.1871,-0.1849,-0.1849,-0.1849,-0.1849,0,0,0,0,0,0,0,-0.1856,-0.1859,-0.1887,-0.1875,-0.1874,-0.187,-0.1871,-0.1877,-0.1867,-0.1868,-0.1866,-0.187,-0.1856,-0.186,-0.1859,-0.1871,-0.1849,-0.1849,-0.1849,-0.1849,-0.1893,-0.1894,0,0,0,0,0,0,-0.1859,-0.1858,-0.1887,-0.1887,-0.1864,-0.1872,-0.1872,-0.1878,-0.1868,-0.1866,-0.1871,-0.1869,-0.186,-0.1859,-0.1858,-0.1882,-0.1849,-0.185,-0.185,-0.1892,-0.1894,-0.1895,0,0,0,0,0,0,-0.1858,-0.1861,-0.1886,-0.1874,-0.1877,-0.1874,-0.188,-0.1879,-0.1879,-0.1871,-0.1868,-0.1873,-0.1859,-0.1858,-0.1865,-0.1881,-0.185,-0.185,-0.1891,-0.1893,-0.1894,-0.1932,0,0,0,0,0,0,-0.1857,-0.1861,-0.1864,-0.1874,-0.1878,-0.1902,-0.1882,-0.188,-0.1884,-0.1881,-0.1872,-0.1869,-0.1858,-0.1865,-0.1865,-0.1881,-0.185,-0.189,-0.1892,-0.1894,-0.193,-0.1935,-0.1939,0,0,0,0,0,-0.1855,-0.1866,-0.1865,-0.1868,-0.1883,-0.1903,-0.1905,-0.1897,-0.1885,-0.1892,-0.1884,-0.1869,-0.1877,-0.1866,-0.1866,-0.1882,-0.1889,-0.1891,-0.1894,-0.1927,-0.1934,-0.1939,0,0,0,0,0,0,-0.185,-0.1865,-0.1863,-0.1877,-0.189,-0.1899,-0.1904,-0.1902,-0.1902,-0.1895,-0.1882,-0.188,-0.1892,-0.1886,-0.1874,-0.1901,-0.1881,-0.1883,-0.1906,-0.1912,-0.1917,-0.1915,-0.185,0,0,0,0,0,-0.1852,-0.1861,-0.1878,-0.1887,-0.1896,-0.1901,-0.1907,-0.1906,-0.191,-0.1908,-0.1903,-0.1899,-0.1905,-0.1905,-0.1908,-0.1925,-0.1909,-0.1936,-0.194,-0.1944,-0.1944,-0.1938,-0.1941,-0.1902,-0.1902,-0.1902,0,0,-0.1851,-0.1861,-0.1865,-0.1886,-0.1893,-0.1914,-0.1901,-0.1915,-0.193,-0.1907,-0.192,-0.1916,-0.1913,-0.1929,-0.1935,-0.1923,-0.1948,-0.1947,-0.195,-0.1948,-0.194,-0.1944,-0.1947,-0.1903,-0.1903,-0.1903,0,0,-0.1858,-0.1865,-0.1877,-0.1894,-0.1912,-0.1921,-0.1928,-0.1942,-0.1944,-0.1962,-0.1949,-0.1954,-0.1963,-0.1963,-0.1965,-0.1999,-0.1974,-0.2002,-0.2024,-0.2018,-0.2021,-0.2023,-0.2009,-0.201,-0.2003,-0.2004,-0.2004,0,-0.1856,-0.1874,-0.1884,-0.1905,-0.1919,-0.1927,-0.1948,-0.1961,-0.1974,-0.198,-0.1969,-0.1983,-0.198,-0.1999,-0.201,-0.201,-0.1997,-0.2001,-0.2023,-0.2025,-0.2027,-0.2012,-0.2012,-0.2006,-0.2005,-0.2005,-0.2005,0,-0.1874,-0.1891,-0.1901,-0.1929,-0.1949,-0.1967,-0.1992,-0.2008,-0.2011,-0.2019,-0.2036,-0.2032,-0.2036,-0.2042,-0.2037,-0.2054,-0.2038,-0.2029,-0.2006,-0.2033,-0.2016,-0.2015,-0.2009,-0.2008,-0.2007,-0.2007,0,0,-0.1854,-0.1903,-0.1905,-0.1922,-0.1962,-0.1978,-0.2013,-0.2043,-0.2057,-0.2069,-0.2083,-0.2097,-0.2087,-0.2089,-0.2083,-0.2081,-0.2085,-0.2062,-0.2061,-0.2044,-0.2065,-0.1984,-0.1976,-0.2077,-0.2078,-0.2078,-0.2048,0,-0.186,-0.1898,-0.1925,-0.1961,-0.1982,-0.2011,-0.2043,-0.2071,-0.2088,-0.2105,-0.2108,-0.2117,-0.2108,-0.2107,-0.2107,-0.2093,-0.2086,-0.2093,-0.2046,-0.2044,-0.1965,-0.1974,-0.1831,-0.1786,-0.2048,-0.2048,-0.2047,0,-0.1862,-0.1888,-0.1923,-0.1974,-0.1986,-0.2011,-0.2053,-0.2083,-0.2119,-0.2131,-0.2143,-0.2143,-0.2152,-0.2133,-0.2119,-0.2123,-0.2097,-0.2081,-0.2079,-0.1989,-0.1962,-0.1802,-0.1775,-0.2046,-0.2047,-0.2047,-0.2047,0,-0.1827,-0.1884,-0.1908,-0.1926,-0.1987,-0.2006,-0.2038,-0.2083,-0.2104,-0.2141,-0.2151,-0.2164,-0.2159,-0.2143,-0.2112,-0.2116,-0.2082,-0.2082,-0.1985,-0.1979,-0.1839,-0.182,-0.2063,-0.2063,-0.2063,-0.2063,-0.2063,0,-0.1815,-0.1832,-0.1892,-0.1902,-0.193,-0.1984,-0.2013,-0.205,-0.2096,-0.2112,-0.2151,-0.2153,-0.216,-0.2142,-0.2117,-0.2041,-0.2083,-0.1984,-0.1964,-0.1848,-0.1831,-0.2043,-0.2041,-0.2062,-0.2062,-0.2063,-0.2063,0,-0.1764,-0.1807,-0.1833,-0.1895,-0.1911,-0.1928,-0.199,-0.2007,-0.2066,-0.2087,-0.2097,-0.2141,-0.2114,-0.2104,-0.2071,-0.2029,-0.1979,-0.194,-0.1799,-0.1763,-0.1882,-0.1882,-0.1834,-0.1831,-0.1829,-0.1826,-0.1824,0,-0.1739,-0.1747,-0.1805,-0.1813,-0.1836,-0.1873,-0.1893,-0.1971,-0.1993,-0.2064,-0.2063,-0.2069,-0.2029,-0.1961,-0.1897,-0.1822,-0.1895,-0.1656,-0.1637,-0.1871,-0.1858,-0.1863,-0.1867,-0.1471,-0.1467,-0.1463,-0.146,0,-0.1679,-0.1699,-0.1716,-0.1736,-0.1756,-0.1782,-0.1822,-0.1836,-0.192,-0.1939,-0.1945,-0.1922,-0.187,-0.1723,-0.1643,-0.1591,-0.166,-0.1576,-0.1849,-0.1551,-0.1526,-0.1514,-0.1531,-0.1426,-0.143,-0.1432,-0.1434,-0.1435,-0.1617,-0.1612,-0.163,-0.1637,-0.166,-0.1663,-0.1645,-0.1691,-0.1699,-0.1692,-0.1762,-0.1672,-0.1657,-0.1442,-0.1363,-0.131,-0.1427,-0.1368,-0.1381,-0.1398,-0.1361,-0.1332,-0.1189,-0.1191,-0.1193,-0.1194,-0.1196,0,-0.1526,-0.1524,-0.1528,-0.1528,-0.1503,-0.1554,-0.1566,-0.1519,-0.1476,-0.149,-0.1458,-0.1288,-0.1179,-0.117,-0.1028,-0.1,-0.1007,-0.0965,-0.0976,-0.1009,-0.1039,-0.0986,-0.0713,-0.0712,-0.0711,-0.0709,0,0,-0.1477,-0.1439,-0.1437,-0.1359,-0.1356,-0.1282,-0.1258,-0.1207,-0.1183,-0.1093,-0.1041,-0.1102,-0.1122,-0.0914,-0.087,-0.0764,-0.088,-0.0726,-0.1112,-0.1158,-0.1186,-0.1268,-0.1222,0,0,0,0,0]},{"header":{"parameterUnit":"m.s-1","parameterCategory":2,"la1":30.2991,"la2":30.254,"lo1":-89.0895,"lo2":-89.0444,"dy":0.0017,"dx":0.0017,"nx":28,"ny":28,"refTime":"2024-11-29T03:00:00:Z","depth":"2","parameterNumber":3,"parameterNumberName":"V-component_of_CURRENTS"},"data":[0,0,0,0,0,0,0,0,0,0,0,0,0,0,0,0,0,0,0,0,0,0,0,0,0,0,0,0,0,0,0,0,0,0,0,0,0,0,0,0,0,0,0,0,0,0,0,0,0,0,0,0,0,0,0,0,0,0,-0.027,-0.027,0,-0.0205,-0.0204,-0.0203,-0.0158,-0.0158,-0.0158,-0.0157,-0.005,-0.0047,-0.0045,0,0,0,0,0,0,0,0,0,0,0,0,0,-0.0315,-0.0315,-0.027,-0.027,-0.0269,-0.0205,-0.0204,-0.0203,-0.0158,-0.0158,-0.0158,-0.0157,-0.0051,-0.0048,-0.0044,0,0,0,0,0,0,0,0,0,0,0,0,0,-0.0277,-0.0315,-0.0271,-0.024,-0.0236,-0.0205,-0.0204,-0.0203,-0.0158,-0.0158,-0.0157,-0.0157,-0.0052,-0.0048,-0.0044,-0.0027,0,0,-0.0032,-0.003,0,0,0,0,0,0,0,0,-0.0279,-0.0275,-0.0245,-0.0242,-0.0238,-0.019,-0.018,-0.0142,-0.0158,-0.0187,-0.0157,-0.0157,-0.0094,-0.0086,-0.0074,-0.0022,-0.0017,-0.0032,-0.0029,-0.0027,-0.0026,0,0,0,0,0,0,0,-0.0282,-0.0277,-0.0243,-0.0244,-0.024,-0.0215,-0.0209,-0.0173,-0.0142,-0.0184,-0.0181,-0.0176,-0.0091,-0.0078,-0.0071,-0.0016,-0.0032,-0.0028,-0.0026,-0.0024,0.0062,0.0062,0,0,0,0,0,0,-0.0294,-0.028,-0.0245,-0.0242,-0.0259,-0.0215,-0.0208,-0.0205,-0.0143,-0.0134,-0.0176,-0.0174,-0.0085,-0.0076,-0.0067,-0.0043,-0.0027,-0.0024,-0.0022,0.0062,0.0062,0.0062,0,0,0,0,0,0,-0.0296,-0.0292,-0.0248,-0.026,-0.0253,-0.0215,-0.0211,-0.0204,-0.0191,-0.0137,-0.0127,-0.0171,-0.0084,-0.0073,-0.0037,-0.0039,-0.0022,-0.0018,0.0062,0.0062,0.0062,0.0005,0,0,0,0,0,0,-0.0297,-0.0293,-0.0296,-0.0261,-0.0253,-0.0235,-0.0211,-0.0203,-0.0189,-0.0185,-0.0129,-0.0119,-0.0083,-0.0043,-0.0033,-0.0033,-0.0015,0.0062,0.0062,0.0062,0.0007,0.0003,-0.0,0,0,0,0,0,-0.0299,-0.0306,-0.0297,-0.0292,-0.0258,-0.0236,-0.0229,-0.02,-0.0189,-0.0186,-0.0148,-0.012,-0.0037,-0.004,-0.0028,-0.0027,0.0062,0.0062,0.0062,0.0009,0.0004,-0.0,0,0,0,0,0,0,-0.0325,-0.0301,-0.029,-0.0288,-0.0267,-0.0229,-0.0224,-0.0205,-0.0173,-0.017,-0.0119,-0.0106,-0.0077,-0.0044,-0.0049,-0.0003,0.0016,0.0018,-0.0028,-0.0032,-0.0036,-0.0049,-0.0012,0,0,0,0,0,-0.0334,-0.0333,-0.0304,-0.0303,-0.0295,-0.0262,-0.025,-0.0231,-0.0199,-0.0185,-0.0146,-0.0104,-0.0068,-0.0045,-0.0011,0.0017,0.0052,0.0025,0.0022,0.0018,0.0016,0.0066,0.0067,0.0061,0.0061,0.0061,0,0,-0.0344,-0.0331,-0.033,-0.0309,-0.029,-0.0284,-0.0253,-0.024,-0.0232,-0.0177,-0.0154,-0.0117,-0.0065,-0.0037,-0.002,-0.0008,0.0038,0.0018,0.0015,0.0014,0.0066,0.0067,0.0067,0.0061,0.0061,0.0061,0,0,-0.0367,-0.0353,-0.0361,-0.0348,-0.0327,-0.0304,-0.0304,-0.027,-0.0251,-0.0225,-0.0185,-0.0149,-0.0095,-0.0057,-0.0031,-0.0033,0.0013,-0.0024,-0.0048,0.0001,0.0002,0.0003,0.0044,0.0049,-0.0022,-0.0022,-0.0022,0,-0.0382,-0.0387,-0.036,-0.0365,-0.0358,-0.0318,-0.0325,-0.0299,-0.0257,-0.024,-0.0226,-0.0145,-0.0104,-0.006,-0.0063,-0.0041,-0.001,-0.0036,-0.0004,-0.0002,-0.0,0.0041,0.0048,-0.0025,-0.0025,-0.0025,-0.0024,0,-0.041,-0.0415,-0.0418,-0.0411,-0.0399,-0.0399,-0.0363,-0.0347,-0.032,-0.0288,-0.0245,-0.0186,-0.0137,-0.0119,-0.0091,-0.0056,-0.0039,-0.0019,0.0004,-0.0003,0.0041,0.0049,-0.0029,-0.0028,-0.0027,-0.0027,0,0,-0.0441,-0.0441,-0.0442,-0.0451,-0.0426,-0.0421,-0.0405,-0.0377,-0.0365,-0.0317,-0.0291,-0.023,-0.0195,-0.0163,-0.0119,-0.0077,-0.0036,-0.0048,-0.0044,-0.0013,0.0065,0.009,0.0101,-0.0012,-0.0011,-0.001,0.0088,0,-0.0473,-0.0501,-0.0484,-0.0504,-0.0515,-0.0476,-0.0466,-0.0433,-0.0392,-0.0356,-0.0287,-0.0247,-0.0211,-0.0188,-0.014,-0.006,-0.0018,-0.0065,0.0073,0.0077,0.0095,0.011,0.0084,0.0171,0.0096,0.0098,0.0099,0,-0.0506,-0.0521,-0.0552,-0.0556,-0.0556,-0.0557,-0.0532,-0.0516,-0.045,-0.0417,-0.0359,-0.0301,-0.0228,-0.0201,-0.0068,-0.0101,-0.0028,0.0034,0.004,0.0088,0.0116,0.0169,0.0188,0.0112,0.0111,0.011,0.0109,0,-0.0549,-0.0567,-0.0596,-0.0598,-0.0594,-0.0596,-0.0586,-0.0536,-0.0521,-0.0453,-0.0428,-0.0332,-0.0278,-0.0177,-0.0047,-0.0057,0.0101,0.0109,0.02,0.0203,0.0221,0.0224,0.0199,0.0199,0.0198,0.0198,0.0198,0,-0.0591,-0.0613,-0.0622,-0.0639,-0.0669,-0.0644,-0.0653,-0.0625,-0.0576,-0.0555,-0.0465,-0.0416,-0.027,-0.016,-0.0052,0.0104,0.0103,0.0201,0.0234,0.02,0.02,0.0181,0.0178,0.0202,0.0201,0.02,0.02,0,-0.0634,-0.0639,-0.0677,-0.0688,-0.0694,-0.0715,-0.0709,-0.0707,-0.0655,-0.0621,-0.0601,-0.047,-0.0319,-0.0168,0.0013,0.0102,0.0245,0.0298,0.0245,0.027,0.0312,0.0305,0.0407,0.0409,0.041,0.0411,0.0412,0,-0.0658,-0.0683,-0.0721,-0.0748,-0.0757,-0.078,-0.0791,-0.0754,-0.0743,-0.0648,-0.0629,-0.0479,-0.0356,-0.008,0.0104,0.0304,0.0301,0.0385,0.0364,0.0314,0.0336,0.0326,0.0316,0.0366,0.0367,0.0367,0.0367,0,-0.0702,-0.0716,-0.0748,-0.0807,-0.0836,-0.0863,-0.0871,-0.0874,-0.0816,-0.0761,-0.0651,-0.0542,-0.0276,-0.005,0.0201,0.0312,0.0349,0.0401,0.0382,0.0312,0.0283,0.0301,0.0292,0.0372,0.0371,0.0371,0.0371,0.0371,-0.0729,-0.0766,-0.0809,-0.0861,-0.0898,-0.093,-0.0942,-0.092,-0.0884,-0.0778,-0.0674,-0.0476,-0.0278,0.0098,0.0264,0.0421,0.0418,0.0452,0.0448,0.0444,0.0416,0.0391,0.0494,0.0495,0.0495,0.0495,0.0495,0,-0.0759,-0.08,-0.0857,-0.0916,-0.0959,-0.0965,-0.0979,-0.0953,-0.0894,-0.0765,-0.0628,-0.0376,-0.0125,0.0091,0.0341,0.0477,0.0458,0.0497,0.0439,0.0435,0.0431,0.0399,0.0475,0.0476,0.0476,0.0476,0,0,-0.0776,-0.0835,-0.0867,-0.0946,-0.0985,-0.1012,-0.1014,-0.0948,-0.0847,-0.0697,-0.0538,-0.0352,-0.0097,0.007,0.0238,0.0368,0.0365,0.038,0.0381,0.0288,0.0282,0.0392,0.0337,0,0,0,0,0]}],[{"header":{"parameterUnit":"m.s-1","parameterCategory":2,"la1":30.2991,"la2":30.254,"lo1":-89.0895,"lo2":-89.0444,"dy":0.0017,"dx":0.0017,"nx":28,"ny":28,"refTime":"2024-11-29T03:00:00:Z","depth":"4","parameterNumber":2,"parameterNumberName":"U-component_of_CURRENTS"},"data":[0,0,0,0,0,0,0,0,0,0,0,0,0,0,0,0,0,0,0,0,0,0,0,0,0,0,0,0,0,0,0,0,0,0,0,0,0,0,0,0,0,0,0,0,0,0,0,0,0,0,0,0,0,0,0,0,0,0,-0.1376,-0.1377,0,-0.1422,-0.1422,-0.1423,-0.1444,-0.1444,-0.1444,-0.1444,-0.1484,-0.1485,-0.1486,0,0,0,0,0,0,0,0,0,0,0,0,0,-0.1313,-0.1314,-0.1376,-0.1377,-0.1378,-0.1422,-0.1422,-0.1423,-0.1444,-0.1444,-0.1444,-0.1444,-0.1483,-0.1485,-0.1486,0,0,0,0,0,0,0,0,0,0,0,0,0,-0.1347,-0.1314,-0.1376,-0.1394,-0.1396,-0.1422,-0.1422,-0.1423,-0.1444,-0.1444,-0.1444,-0.1444,-0.1483,-0.1485,-0.1486,-0.1493,0,0,-0.149,-0.1491,0,0,0,0,0,0,0,0,-0.1345,-0.1349,-0.1391,-0.1393,-0.1396,-0.1428,-0.1415,-0.1446,-0.1444,-0.1425,-0.1444,-0.1444,-0.1465,-0.1468,-0.1475,-0.1495,-0.1497,-0.1491,-0.1492,-0.1492,-0.1493,0,0,0,0,0,0,0,-0.1343,-0.1347,-0.1393,-0.1392,-0.1395,-0.1402,-0.1407,-0.1421,-0.1443,-0.1427,-0.1428,-0.1435,-0.1466,-0.1474,-0.1476,-0.1497,-0.1491,-0.1492,-0.1493,-0.1493,-0.1575,-0.1576,0,0,0,0,0,0,-0.1339,-0.1345,-0.1392,-0.1395,-0.1371,-0.1403,-0.1409,-0.1417,-0.1443,-0.1448,-0.1435,-0.1436,-0.1471,-0.1474,-0.1478,-0.1537,-0.1492,-0.1494,-0.1494,-0.1574,-0.1575,-0.1577,0,0,0,0,0,0,-0.1337,-0.1343,-0.139,-0.1372,-0.1378,-0.1404,-0.1413,-0.1418,-0.1446,-0.145,-0.1454,-0.1461,-0.1471,-0.1476,-0.151,-0.1536,-0.1494,-0.1496,-0.1572,-0.1574,-0.1576,-0.1623,0,0,0,0,0,0,-0.1335,-0.1342,-0.1358,-0.1371,-0.1379,-0.142,-0.1414,-0.1419,-0.1449,-0.1451,-0.1473,-0.1476,-0.1472,-0.1508,-0.1512,-0.1538,-0.1497,-0.1571,-0.1573,-0.1575,-0.162,-0.1627,-0.1632,0,0,0,0,0,-0.1333,-0.1351,-0.1359,-0.1365,-0.1397,-0.1421,-0.1426,-0.1444,-0.1451,-0.1469,-0.1485,-0.1476,-0.1526,-0.1511,-0.1515,-0.1541,-0.1569,-0.1572,-0.1575,-0.1617,-0.1625,-0.1632,0,0,0,0,0,0,-0.1334,-0.1355,-0.1364,-0.1389,-0.1411,-0.1425,-0.1447,-0.1458,-0.1485,-0.1494,-0.1494,-0.1498,-0.1538,-0.1535,-0.1518,-0.1572,-0.1546,-0.155,-0.1577,-0.1584,-0.159,-0.1584,-0.1498,0,0,0,0,0,-0.1341,-0.1361,-0.1381,-0.1403,-0.1417,-0.1437,-0.1454,-0.1467,-0.1487,-0.15,-0.1516,-0.1533,-0.1549,-0.1564,-0.1577,-0.1609,-0.1592,-0.1629,-0.1635,-0.164,-0.1639,-0.1636,-0.1641,-0.1586,-0.1586,-0.1586,0,0,-0.1349,-0.1363,-0.1376,-0.1406,-0.1424,-0.1451,-0.1448,-0.1481,-0.1508,-0.15,-0.1548,-0.1557,-0.1563,-0.1597,-0.1615,-0.1601,-0.1648,-0.1644,-0.1648,-0.1643,-0.164,-0.1645,-0.1649,-0.1588,-0.1588,-0.1587,0,0,-0.1365,-0.1387,-0.1407,-0.1429,-0.1463,-0.1477,-0.1492,-0.1522,-0.1543,-0.1585,-0.1585,-0.161,-0.1643,-0.1648,-0.1654,-0.1703,-0.168,-0.1713,-0.1741,-0.1739,-0.1743,-0.1746,-0.1732,-0.1734,-0.1717,-0.1717,-0.1717,0,-0.1376,-0.1401,-0.1419,-0.1444,-0.1467,-0.1491,-0.152,-0.1546,-0.1586,-0.1604,-0.1608,-0.1655,-0.1664,-0.1693,-0.1712,-0.1716,-0.1706,-0.1712,-0.1745,-0.1748,-0.1751,-0.1736,-0.1737,-0.1719,-0.1719,-0.1719,-0.1718,0,-0.1398,-0.143,-0.1446,-0.1485,-0.1513,-0.1544,-0.1577,-0.1613,-0.1641,-0.166,-0.1705,-0.1717,-0.1739,-0.1752,-0.1749,-0.1777,-0.1761,-0.1752,-0.1724,-0.1759,-0.1741,-0.1742,-0.1723,-0.1722,-0.1721,-0.1721,0,0,-0.1386,-0.145,-0.1458,-0.1484,-0.1538,-0.156,-0.1612,-0.1656,-0.1686,-0.1727,-0.176,-0.1795,-0.1798,-0.1804,-0.1806,-0.181,-0.1824,-0.1794,-0.1793,-0.1774,-0.1813,-0.169,-0.1678,-0.1821,-0.1821,-0.1822,-0.1792,0,-0.14,-0.145,-0.1482,-0.1537,-0.1564,-0.1608,-0.1651,-0.1695,-0.1732,-0.1771,-0.179,-0.1822,-0.1819,-0.1832,-0.1838,-0.1829,-0.1827,-0.1832,-0.1786,-0.1784,-0.1666,-0.1675,-0.1823,-0.1792,-0.1792,-0.1792,-0.1792,0,-0.1404,-0.1438,-0.1493,-0.1559,-0.1577,-0.1617,-0.1682,-0.1724,-0.178,-0.1808,-0.184,-0.1853,-0.1877,-0.1864,-0.1861,-0.1865,-0.1844,-0.183,-0.1828,-0.1694,-0.1662,-0.175,-0.1793,-0.1793,-0.1793,-0.1793,-0.1793,0,-0.1369,-0.1444,-0.1487,-0.1512,-0.159,-0.1628,-0.1673,-0.1736,-0.1768,-0.183,-0.185,-0.1881,-0.1892,-0.1883,-0.1858,-0.1865,-0.1836,-0.1838,-0.1705,-0.1696,-0.1795,-0.1792,-0.1825,-0.1825,-0.1825,-0.1825,-0.1825,0,-0.1352,-0.139,-0.1479,-0.1501,-0.1553,-0.1617,-0.1672,-0.172,-0.1781,-0.1802,-0.1863,-0.1865,-0.1897,-0.1884,-0.1863,-0.1772,-0.1836,-0.17,-0.1676,-0.1816,-0.1816,-0.1795,-0.1792,-0.1824,-0.1824,-0.1824,-0.1824,0,-0.1299,-0.1362,-0.1414,-0.1506,-0.1536,-0.1573,-0.1662,-0.1688,-0.1763,-0.179,-0.1808,-0.1856,-0.1831,-0.1837,-0.1812,-0.1754,-0.1697,-0.1648,-0.1788,-0.1775,-0.1561,-0.1562,-0.15,-0.1495,-0.1491,-0.1488,-0.1485,0,-0.1273,-0.1296,-0.14,-0.1426,-0.1471,-0.1537,-0.1569,-0.1662,-0.1682,-0.1756,-0.1747,-0.1764,-0.1775,-0.1633,-0.1666,-0.1605,-0.1584,-0.1551,-0.1564,-0.1543,-0.1527,-0.1533,-0.1539,-0.1479,-0.1478,-0.1477,-0.1476,0,-0.1213,-0.1264,-0.1302,-0.1355,-0.1401,-0.1442,-0.1498,-0.1499,-0.1585,-0.1675,-0.1623,-0.1598,-0.1564,-0.1535,-0.1492,-0.1455,-0.1575,-0.151,-0.1518,-0.1531,-0.1517,-0.1506,-0.1516,-0.1462,-0.1464,-0.1465,-0.1466,0,-0.1165,-0.1175,-0.1229,-0.1259,-0.1314,-0.1313,-0.1363,-0.1368,-0.1398,-0.1484,-0.146,-0.148,-0.1533,-0.1455,-0.1419,-0.1368,-0.1354,-0.1314,-0.1333,-0.1349,-0.1313,-0.1275,-0.1113,0,0,0,0,0,-0.1105,-0.1097,-0.1122,-0.1145,-0.1193,-0.1217,-0.1291,-0.1341,-0.1429,-0.1346,-0.1397,-0.1354,-0.1297,-0.1317,-0.123,-0.1361,-0.1367,-0.1258,-0.1335,-0.1386,-0.1402,-0.1374,0,0,0,0,0,0,-0.1062,-0.1083,-0.1082,-0.1034,-0.1024,-0.1058,-0.1095,-0.116,-0.1123,-0.1218,-0.1187,-0.1266,-0.1227,-0.1309,-0.1196,-0.1203,-0.1222,-0.1285,-0.1282,-0.1377,-0.1391,-0.1404,-0.1381,0,0,0,0,0]},{"header":{"parameterUnit":"m.s-1","parameterCategory":2,"la1":30.2991,"la2":30.254,"lo1":-89.0895,"lo2":-89.0444,"dy":0.0017,"dx":0.0017,"nx":28,"ny":28,"refTime":"2024-11-29T03:00:00:Z","depth":"4","parameterNumber":3,"parameterNumberName":"V-component_of_CURRENTS"},"data":[0,0,0,0,0,0,0,0,0,0,0,0,0,0,0,0,0,0,0,0,0,0,0,0,0,0,0,0,0,0,0,0,0,0,0,0,0,0,0,0,0,0,0,0,0,0,0,0,0,0,0,0,0,0,0,0,0,0,-0.0191,-0.019,0,-0.0144,-0.0144,-0.0143,-0.0113,-0.0113,-0.0112,-0.0112,-0.0026,-0.0024,-0.0022,0,0,0,0,0,0,0,0,0,0,0,0,0,-0.0218,-0.0218,-0.0191,-0.019,-0.019,-0.0145,-0.0144,-0.0143,-0.0113,-0.0113,-0.0112,-0.0112,-0.0027,-0.0024,-0.0022,0,0,0,0,0,0,0,0,0,0,0,0,0,-0.0191,-0.0218,-0.0191,-0.017,-0.0168,-0.0145,-0.0144,-0.0143,-0.0113,-0.0113,-0.0112,-0.0112,-0.0028,-0.0025,-0.0021,-0.0004,0,0,-0.0011,-0.001,0,0,0,0,0,0,0,0,-0.0193,-0.019,-0.0174,-0.0171,-0.0169,-0.0135,-0.0122,-0.0095,-0.0113,-0.0133,-0.0112,-0.0112,-0.006,-0.0054,-0.0045,-0.0,0.0004,-0.0011,-0.0009,-0.0008,-0.0007,0,0,0,0,0,0,0,-0.0195,-0.0192,-0.0171,-0.0173,-0.017,-0.0151,-0.0147,-0.0116,-0.0096,-0.0131,-0.0129,-0.0125,-0.0058,-0.0048,-0.0042,0.0005,-0.0011,-0.0008,-0.0006,-0.0005,0.0071,0.0071,0,0,0,0,0,0,-0.0205,-0.0194,-0.0173,-0.017,-0.0182,-0.0151,-0.0147,-0.0145,-0.0097,-0.009,-0.0125,-0.0124,-0.0054,-0.0046,-0.0039,-0.0017,-0.0008,-0.0005,-0.0003,0.0071,0.0071,0.0071,0,0,0,0,0,0,-0.0205,-0.0203,-0.0175,-0.0182,-0.0177,-0.0151,-0.0149,-0.0144,-0.0137,-0.0094,-0.0086,-0.0124,-0.0053,-0.0044,-0.0014,-0.0013,-0.0003,-0.0,0.0071,0.0071,0.0071,0.0029,0,0,0,0,0,0,-0.0206,-0.0204,-0.0209,-0.0182,-0.0177,-0.0166,-0.0149,-0.0144,-0.0135,-0.0133,-0.0089,-0.0081,-0.0052,-0.002,-0.0011,-0.0008,0.0003,0.0071,0.0071,0.0071,0.003,0.0028,0.0025,0,0,0,0,0,-0.0208,-0.0214,-0.0209,-0.0207,-0.0183,-0.0167,-0.0162,-0.0142,-0.0136,-0.0134,-0.0104,-0.0083,-0.0013,-0.0017,-0.0007,-0.0003,0.0071,0.0071,0.0071,0.0031,0.0028,0.0025,0,0,0,0,0,0,-0.0227,-0.0211,-0.0205,-0.0206,-0.0191,-0.0162,-0.0161,-0.0147,-0.0123,-0.0122,-0.0081,-0.007,-0.0045,-0.0019,-0.0024,0.0019,0.0032,0.0034,-0.0001,-0.0004,-0.0007,-0.0017,0.0005,0,0,0,0,0,-0.0235,-0.0237,-0.0216,-0.0218,-0.0212,-0.0188,-0.018,-0.0168,-0.0143,-0.0132,-0.0102,-0.0068,-0.0037,-0.0017,0.0012,0.0037,0.0064,0.0046,0.0044,0.0041,0.0039,0.0083,0.0084,0.0071,0.0071,0.0071,0,0,-0.0244,-0.0235,-0.0237,-0.0223,-0.021,-0.0204,-0.0183,-0.0175,-0.0168,-0.0126,-0.0108,-0.0077,-0.0033,-0.0007,0.0007,0.0016,0.0058,0.0041,0.0039,0.0038,0.0083,0.0084,0.0086,0.0072,0.0071,0.0071,0,0,-0.0261,-0.0255,-0.0262,-0.0252,-0.0238,-0.0221,-0.0222,-0.0197,-0.0183,-0.0162,-0.013,-0.0099,-0.0055,-0.002,0.0003,0.0006,0.004,0.0013,-0.0003,0.0039,0.004,0.0041,0.007,0.0075,0.0015,0.0015,0.0015,0,-0.0273,-0.0278,-0.0261,-0.0263,-0.0259,-0.0232,-0.0236,-0.0216,-0.0185,-0.0172,-0.0163,-0.0094,-0.0059,-0.0017,-0.0018,0.0001,0.0023,0.0003,0.0035,0.0037,0.0039,0.0069,0.0074,0.0013,0.0013,0.0013,0.0014,0,-0.0291,-0.0297,-0.0301,-0.0296,-0.0287,-0.0288,-0.026,-0.0249,-0.0231,-0.0206,-0.017,-0.012,-0.0078,-0.0062,-0.0039,-0.0004,0.0005,0.0023,0.004,0.0038,0.0069,0.0075,0.001,0.0011,0.0011,0.0012,0,0,-0.0315,-0.0315,-0.0318,-0.0325,-0.0307,-0.0304,-0.029,-0.0268,-0.0261,-0.0221,-0.0202,-0.0145,-0.0119,-0.0092,-0.0054,-0.0016,0.0018,0.0004,0.0007,0.0027,0.01,0.0081,0.0087,0.0039,0.004,0.0041,0.0112,0,-0.0336,-0.0356,-0.0344,-0.0361,-0.0369,-0.0342,-0.0333,-0.0308,-0.0279,-0.0253,-0.0193,-0.0162,-0.0129,-0.0112,-0.0068,-0.0003,0.0034,-0.0004,0.0103,0.0106,0.0087,0.0094,0.0044,0.0117,0.0118,0.0119,0.012,0,-0.0358,-0.037,-0.0394,-0.0401,-0.0401,-0.0405,-0.0391,-0.0378,-0.0328,-0.0304,-0.0256,-0.0209,-0.0144,-0.0121,-0.0007,-0.0035,0.0025,0.0075,0.008,0.0082,0.01,0.0123,0.0132,0.0131,0.013,0.013,0.0129,0,-0.0388,-0.0404,-0.0428,-0.0431,-0.043,-0.0437,-0.0434,-0.0398,-0.039,-0.0337,-0.0323,-0.0236,-0.0197,-0.0106,-0.0002,-0.0004,0.0119,0.0135,0.0176,0.0175,0.0189,0.0187,0.0212,0.0212,0.0211,0.0211,0.0211,0,-0.0412,-0.0433,-0.0451,-0.0465,-0.0497,-0.0479,-0.0497,-0.0476,-0.0445,-0.0435,-0.0356,-0.0325,-0.0193,-0.0105,-0.001,0.01,0.0118,0.0173,0.0194,0.0168,0.0163,0.0193,0.019,0.0214,0.0213,0.0213,0.0212,0,-0.0438,-0.0448,-0.0484,-0.0504,-0.0515,-0.0539,-0.0552,-0.0557,-0.0522,-0.0505,-0.049,-0.0386,-0.0271,-0.014,0.0013,0.0081,0.0193,0.0227,0.0179,0.0198,0.0222,0.0216,0.028,0.028,0.028,0.028,0.028,0,-0.0451,-0.0473,-0.0523,-0.0554,-0.0569,-0.0601,-0.0621,-0.0601,-0.0598,-0.054,-0.0529,-0.0421,-0.034,-0.0134,-0.0,0.0179,0.0202,0.0251,0.0245,0.0215,0.0231,0.0225,0.0219,0.028,0.028,0.028,0.028,0,-0.0477,-0.0501,-0.0532,-0.0598,-0.0638,-0.0673,-0.0695,-0.0699,-0.0665,-0.0638,-0.055,-0.0435,-0.0307,-0.014,-0.0004,0.0125,0.0216,0.0252,0.0253,0.0247,0.0216,0.023,0.0224,0.028,0.028,0.028,0.028,0,-0.0498,-0.0532,-0.058,-0.0633,-0.0688,-0.0724,-0.0734,-0.0716,-0.0703,-0.0628,-0.0601,-0.0449,-0.0356,-0.0168,-0.004,0.0082,0.0113,0.0145,0.0152,0.0154,0.0094,0.0035,0.0062,0,0,0,0,0,-0.0512,-0.0551,-0.0608,-0.0666,-0.0722,-0.0747,-0.0769,-0.0765,-0.0735,-0.0679,-0.0635,-0.0509,-0.0306,-0.0211,-0.0091,-0.0051,0.0121,0.0091,0.0158,0.028,0.028,0.023,0,0,0,0,0,0,-0.0523,-0.058,-0.0608,-0.0679,-0.072,-0.0771,-0.0786,-0.0768,-0.0723,-0.0676,-0.0561,-0.0492,-0.0289,-0.0372,-0.0091,-0.0053,0.0001,0.0193,0.0195,0.028,0.028,0.028,0.0228,0,0,0,0,0]}]]